DW7727 Weather Reports


Display with metric or nautical units.
time (UTC)temp
F
wind
direction
speed
MPH
gust
MPH
rain 1hr
in
rain 24hr
in
rain mn
in
humidity
%
barometer
mb
20190620090233 41 358 0.0 0.0 0.00 0.01 0.00 90 1027.4
20190620084716 41 34 0.0 1.0 0.00 0.01 0.00 89 1027.3
20190620083207 42 34 0.0 1.0 0.00 0.01 0.00 88 1027.1
20190620081651 42 104 0.0 2.0 0.00 0.01 0.00 87 1027.1
20190620080145 42 318 0.0 2.0 0.00 0.01 0.00 86 1026.8
20190620074619 43 320 0.0 3.0 0.00 0.01 0.00 85 1026.7
20190620073106 43 331 0.0 4.0 0.00 0.01 0.00 85 1026.7
20190620071636 44 330 0.0 3.0 0.00 0.01 0.00 85 1026.7
20190620070408 44 80 0.0 3.0 0.00 0.01 0.00 86 1026.4
20190620064726 44 29 0.0 3.0 0.00 0.01 0.00 86 1026.4
20190620063150 44 15 0.0 4.0 0.00 0.01 0.00 85 1026.3
20190620061629 45 260 0.0 4.0 0.00 0.01 0.00 85 1026.3
20190620060201 45 105 0.0 5.0 0.00 0.01 0.00 84 1026.4
20190620054700 45 200 0.0 2.0 0.00 0.01 0.00 83 1026.3
20190620053138 45 247 1.0 6.0 0.00 0.01 0.00 82 1026.2
20190620051650 45 266 0.0 5.0 0.00 0.01 0.00 83 1026.2
20190620050128 45 210 1.0 5.0 0.00 0.01 0.00 82 1026.3
20190620044607 45 14 1.0 5.0 0.00 0.01 0.00 81 1026.2
20190620043131 46 119 0.0 2.0 0.00 0.01 0.00 81 1026.3
20190620041650 46 7 1.0 7.0 0.00 0.01 0.00 82 1026.3
20190620034547 45 320 0.0 6.0 0.00 0.01 0.00 83 1026.5
20190620033114 45 46 0.0 5.0 0.00 0.01 0.00 83 1026.7
20190620031545 45 268 0.0 5.0 0.00 0.01 0.00 82 1026.8
20190620030111 45 297 0.0 5.0 0.00 0.01 0.00 82 1026.9
20190620024604 45 261 0.0 4.0 0.00 0.01 0.00 83 1027.0
20190620023105 44 270 0.0 4.0 0.00 0.01 0.00 85 1027.1
20190620021545 44 284 0.0 3.0 0.00 0.01 0.00 85 1027.3
20190620020039 44 268 1.0 7.0 0.00 0.01 0.00 85 1027.4
20190620014557 45 297 3.0 8.0 0.00 0.01 0.00 83 1027.6
20190620013038 45 322 0.0 7.0 0.00 0.01 0.00 84 1027.9
20190620011625 44 294 0.0 6.0 0.00 0.01 0.00 85 1027.9
20190620010040 44 69 1.0 7.0 0.00 0.01 0.00 85 1027.9
20190620004603 43 325 0.0 8.0 0.00 0.01 0.00 84 1028.0
20190620003042 43 43 0.0 7.0 0.00 0.01 0.00 83 1028.0
20190620001547 42 38 0.0 3.0 0.00 0.01 0.00 83 1028.0
20190620000027 42 281 0.0 3.0 0.00 0.01 0.00 83 1027.9
20190619234604 41 320 0.0 4.0 0.00 0.01 0.00 84 1027.8
20190619233045 41 268 0.0 3.0 0.00 0.01 0.00 84 1027.6
20190619231526 41 312 0.0 3.0 0.00 0.01 0.00 84 1027.4
20190619230022 40 349 0.0 0.0 0.00 0.01 0.00 85 1027.3
20190619224530 40 22 0.0 1.0 0.00 0.01 0.00 85 1027.1
20190619223020 39 18 0.0 1.0 0.00 0.01 0.00 86 1027.3
20190619221512 39 320 0.0 1.0 0.00 0.01 0.00 87 1027.1
20190619220009 39 320 0.0 3.0 0.00 0.01 0.00 88 1027.1
20190619214527 39 323 0.0 1.0 0.00 0.01 0.00 88 1027.1
20190619213039 38 326 0.0 3.0 0.00 0.01 0.00 88 1027.0
20190619211524 39 292 0.0 0.0 0.00 0.01 0.00 87 1027.0
20190619210012 39 21 0.0 0.0 0.00 0.01 0.00 87 1027.0
20190619204503 39 12 0.0 0.0 0.00 0.01 0.00 87 1026.8
20190619201820 38 360 0.0 1.0 0.00 0.01 0.00 91 1026.7
20190619200128 38 357 0.0 3.0 0.00 0.01 0.00 91 1026.5
20190619194818 38 48 0.0 4.0 0.00 0.01 0.00 92 1026.4
20190619193239 38 318 0.0 1.0 0.00 0.01 0.00 92 1026.3
20190619191703 38 340 0.0 2.0 0.00 0.01 0.00 92 1026.2
20190619190145 38 350 0.0 4.0 0.00 0.01 0.00 92 1026.3
20190619184701 38 304 0.0 1.0 0.00 0.01 0.00 92 1026.3
20190619183153 38 345 0.0 1.0 0.00 0.01 0.00 92 1026.4
20190619181658 38 327 0.0 1.0 0.00 0.01 0.00 92 1026.4
20190619180119 38 345 0.0 0.0 0.00 0.01 0.00 92 1026.4
20190619174631 38 22 0.0 2.0 0.00 0.01 0.00 92 1026.6
20190619173133 38 21 0.0 1.0 0.00 0.01 0.00 92 1026.7
20190619171634 39 337 0.0 1.0 0.00 0.01 0.00 91 1026.7
20190619170139 39 299 0.0 0.0 0.00 0.01 0.00 91 1026.6
20190619164620 39 297 0.0 0.0 0.00 0.01 0.00 91 1026.6
20190619163111 39 322 0.0 2.0 0.00 0.01 0.00 91 1026.5
20190619161618 39 346 0.0 1.0 0.00 0.02 0.00 91 1026.6
20190619160121 39 22 0.0 0.0 0.00 0.02 0.00 90 1026.6
20190619154647 40 17 0.0 1.0 0.00 0.02 0.00 90 1026.7
20190619153124 40 349 0.0 1.0 0.00 0.02 0.00 90 1026.7
20190619151611 40 336 0.0 2.0 0.00 0.02 0.00 89 1026.8
20190619150107 40 235 0.0 1.0 0.00 0.02 0.00 89 1027.0
20190619144612 40 312 0.0 2.0 0.00 0.02 0.00 90 1027.0
20190619143052 40 300 0.0 0.0 0.00 0.02 0.00 90 1027.1
20190619141554 39 11 0.0 2.0 0.00 0.02 0.02 91 1027.1
20190619140112 39 350 0.0 1.0 0.00 0.02 0.02 92 1027.1
20190619134550 39 336 0.0 2.0 0.00 0.02 0.02 93 1027.1
20190619133056 39 320 0.0 4.0 0.00 0.02 0.02 94 1027.1
20190619131548 39 357 0.0 3.0 0.00 0.02 0.02 94 1027.2
20190619130114 38 353 0.0 0.0 0.00 0.02 0.02 94 1027.3
20190619124620 38 347 0.0 0.0 0.00 0.02 0.02 94 1027.3
20190619123051 38 354 0.0 0.0 0.00 0.02 0.02 94 1027.3
20190619121554 39 343 0.0 0.0 0.01 0.02 0.02 94 1027.4
20190619120048 39 337 0.0 0.0 0.01 0.02 0.02 94 1027.5
20190619114547 39 343 0.0 0.0 0.01 0.02 0.02 94 1027.5
20190619113052 39 343 0.0 0.0 0.01 0.02 0.02 94 1027.6
20190619111533 39 343 0.0 0.0 0.00 0.01 0.01 94 1027.7
20190619110103 39 344 0.0 0.0 0.00 0.01 0.01 93 1027.8
20190619104540 38 346 0.0 0.0 0.00 0.01 0.01 93 1027.7
20190619103059 38 346 0.0 0.0 0.00 0.01 0.01 93 1027.7
20190619101537 39 346 0.0 0.0 0.00 0.01 0.01 93 1027.7
20190619100023 39 346 0.0 0.0 0.00 0.01 0.01 93 1027.8
20190619094557 39 320 0.0 0.0 0.00 0.01 0.01 93 1027.8
20190619093021 40 320 0.0 0.0 0.00 0.01 0.01 92 1027.7
20190619091530 39 320 0.0 0.0 0.00 0.02 0.01 92 1027.6